Location: Cactus School
(34.5700°N, 118.0931°W)
Time: 08:00:53
(UTC-07:00)

Vanguard 1 Rocket - Pass Details

Date: 25 April 2024
Orbit: 650 x 4220 km, 34.3° (Epoch: 22 May)

Event Time Altitude Azimuth Distance (km) Brightness Sun altitude
Rises 22:22:06 0° 279° (W) 3,483 11.1 -30.3°
Reaches altitude 10° 22:24:11 10° 274° (W) 2,760 10.4 -30.6°
Maximum altitude 22:30:37 54° 199° (SSW) 1,699 8.4 -31.5°
Enters shadow 22:30:41 54° 197° (SSW) 1,706 8.4 -31.5°
